Tracking 18030 objects as of 28-March-2017
HD Live streaming from Space Station
objects crossing your sky now

KOMPSAT 3

Track KOMPSAT 3 now!
10-day predictions
KOMPSAT 3 is classified as:


NORAD ID: 38338
Int'l Code: 2012-025B
Perigee: 689.1 km
Apogee: 701.5 km
Inclination: 98.1 °
Period: 98.5 minutes
Semi major axis: 7066 km
RCS: 5.2993 m2 (large)
Launch date: May 17, 2012
Source: South Korea (SKOR)
Launch site: TANEGASHIMA SPACE CENTER (TNSTA)
Uplink (MHz):
Downlink (MHz):
Beacon (MHz):
Mode:
Call sign:
Status:

Your satellite tracking list
Your tracking list is empty





NASA's NSSDC Master Catalog

Two Line Element Set (TLE):
1 38338U 12025B   17085.84595944 +.00000075 +00000-0 +24516-4 0  9998
2 38338 098.1322 025.3206 0008750 225.6139 134.4348 14.61552302259156
Source of the keplerian elements: AFSPC